Lid_Strength_Index
8 11 12 11 10 10 10 11 12 10 8 9 9 9 8 7 7 6 6 7 7 6 4 3 3 3 3 2 2 2 2 2 2 2 2 3 2 2 2 0 0 0 0 0
10 12 9 7 8 9 10 11 12 9 8 8 9 9 8 7 7 6 6 6 6 6 5 4 4 3 3 2 2 2 3 2 2 2 2 2 2 2 2 1 0 0 0 0
11 9 7 8 9 9 10 11 11 11 8 8 9 11 9 7 6 6 5 5 6 6 6 5 4 4 3 3 3 2 2 2 2 2 1 2 1 2 2 1 1 1 0 0
10 8 8 9 9 9 12 9 9 9 11 14 10 15 11 9 8 7 6 7 6 6 5 5 5 5 4 3 3 2 2 2 1 1 2 3 3 3 2 2 1 1 0 0
10 9 9 9 9 8 10 8 9 9 11 12 11 14 11 9 10 9 7 6 5 6 6 6 5 5 3 2 3 2 2 2 2 2 2 2 3 2 2 2 2 1 1 1
9 6 7 8 7 7 7 9 9 10 12 16 13 15 15 13 11 9 7 6 5 6 6 5 6 5 4 3 3 2 2 3 2 2 2 2 3 3 3 3 2 2 1 1
9 9 7 6 9 8 8 12 18 19 19 19 13 15 14 10 8 8 8 7 5 5 6 6 5 5 5 5 4 3 3 3 2 2 2 2 2 2 3 3 3 2 2 2
14 15 8 7 9 10 11 13 17 21 20 17 12 17 14 9 8 6 6 6 5 6 6 5 5 5 4 3 3 2 3 3 3 2 2 2 2 2 2 3 3 2 2 1
13 13 7 7 6 8 11 13 10 15 14 19 15 12 9 9 8 7 7 6 6 6 5 5 5 5 4 4 3 3 3 3 4 3 2 2 2 2 2 3 3 2 2 1
11 15 9 8 7 7 9 9 14 15 21 22 16 15 16 13 11 8 9 8 6 5 5 5 5 5 4 4 3 3 2 3 3 2 2 2 2 2 2 3 4 2 2 3
10 12 12 9 11 11 11 12 12 13 16 20 21 17 11 12 10 10 8 7 7 6 5 5 4 4 4 4 4 3 2 2 3 3 2 2 2 2 2 3 3 3 3 4
9 12 15 12 8 7 9 12 13 17 19 16 17 18 8 9 8 8 8 7 6 6 6 5 4 5 4 4 4 3 2 2 3 2 2 2 2 2 3 3 2 2 2 3
9 13 17 15 12 9 11 10 10 11 13 16 19 17 7 7 7 7 8 8 6 5 5 5 5 5 4 4 3 3 3 2 2 2 2 3 2 3 3 2 3 2 4 6
7 12 14 18 14 11 13 11 11 12 17 15 15 14 10 9 9 8 8 7 6 6 5 5 5 6 5 3 3 3 3 3 2 2 2 3 2 2 2 2 2 4 5 5
10 15 12 12 11 11 12 12 11 12 12 15 13 13 11 10 9 8 8 6 6 6 5 5 5 5 5 5 4 3 2 2 2 2 3 2 2 2 2 3 3 3 4 5
10 15 13 14 11 11 12 11 10 10 11 12 13 14 9 8 7 7 7 7 7 7 6 6 5 5 4 4 4 3 3 3 2 2 3 2 2 2 3 3 6 7 7 7
11 13 15 17 12 12 15 12 11 12 11 12 15 12 9 9 8 8 8 7 7 7 6 6 6 5 5 5 4 4 3 3 2 2 3 2 2 2 4 5 7 7 9 9
13 14 14 16 14 20 12 9 9 11 10 9 10 10 9 8 8 8 8 8 7 7 7 6 6 6 5 5 5 4 4 3 3 3 3 2 4 7 7 7 8 7 9 10
9 12 15 18 18 14 12 11 11 12 13 9 10 9 8 8 9 9 8 7 8 8 7 7 6 6 6 5 5 5 5 3 3 3 4 6 7 7 7 8 8 8 9 10
9 10 15 15 19 20 12 9 7 8 16 9 9 9 9 9 13 11 9 8 8 7 7 7 6 6 6 6 6 5 5 4 3 3 5 6 6 8 8 8 8 9 10 10
13 13 16 16 17 15 10 8 7 16 14 8 8 9 9 11 10 9 9 9 9 8 8 7 7 7 6 6 6 6 4 4 2 5 6 7 7 8 9 9 10 10 10 12
14 16 16 15 17 18 8 8 13 10 8 8 9 9 10 10 10 10 10 10 9 9 9 9 8 7 6 6 6 6 4 2 5 6 7 7 8 9 10 11 11 11 12 13
15 12 14 13 14 8 7 9 7 7 9 9 9 9 10 11 11 11 10 10 9 9 8 8 9 8 7 6 6 4 3 3 5 6 8 8 9 9 9 10 12 12 12 13
10 8 12 11 10 9 8 6 6 7 9 9 9 10 10 11 11 10 10 10 9 8 8 7 9 8 7 6 5 3 3 5 7 7 8 9 9 10 10 10 11 13 14 14
10 9 11 11 9 8 7 6 7 8 8 9 9 10 10 10 10 10 10 10 9 7 7 8 9 8 6 4 3 3 4 6 7 8 9 9 9 10 11 12 12 13 13 13
9 11 12 13 8 9 8 8 8 9 10 10 10 10 9 9 10 10 10 9 7 8 9 8 8 6 4 3 4 5 6 7 9 10 10 10 11 11 12 13 15 14 14 13